Location: Little Chesterford
(52.0500°N, 0.1833°E)
Time: 04:21:55
(UTC+00:00)

Nadezhda 1 Rocket - Pass Details

Date: 26 September 2023
Orbit: 940 x 1006 km, 83.0° (Epoch: 29 November)

Event Time Altitude Azimuth Distance (km) Brightness Sun altitude
Rises 18:10:08 0° 189° (S) 3,706 7.1 -4.1°
Reaches altitude 10° 18:12:39 10° 190° (S) 2,767 6.5 -4.5°
Maximum altitude 18:19:02 85° 279° (W) 1,017 4.2 -5.4°
Drops below altitude 10° 18:25:30 10° 10° (N) 2,794 6.4 -6.4°
Sets 18:28:03 0° 11° (N) 3,745 7.0 -6.8°
